Tracking 31027 objects as of 19-Jul-2025
HD Live streaming from Space Station
objects crossing your sky now

FENGYUN 1C DEB

Track FENGYUN 1C DEB now!
10-day predictions


NORAD ID: 30371
Int'l Code: 1999-025ACJ
Perigee: 794.8 km
Apogee: 807.6 km
Inclination: 98.6 °
Period: 100.7 minutes
Semi major axis: 7172 km
RCS: 0.046 m2 (small)
Launch date: May 10, 1999
Source: People's Republic of China (PRC)
Launch site: Taiyaun Space Center, China (TSC)

Note: This is SATELLITE DEBRIS
Your satellite tracking list
IRIDIUM 33 DEB
Track 1 satellite(s)




NASA's NSSDC Master Catalog

Two Line Element Set (TLE):
1 30371U 99025ACJ 25199.58037968  .00001450  00000-0  58656-3 0  9994
2 30371  98.5892 244.7041 0008932  53.9682 109.4891 14.29312381958002
Source of the keplerian elements: AFSPC